Starlink 11571

operational
NORAD ID: 62986 Int'l Des: 2025-031 Owner: SPXS Country: US Constellation: starlink
LEOCIRCULAR

Starlink 11571について

説明を読み込み中...

リアルタイム位置

3D地球を読み込み中...

次回通過

高度履歴

Altitude vs Time

uPlot chart will show altitude changes over time

軌道要素

1 62986U 25031F 26035.47744720 .00224659 00000-0 16986-2 0 9993
2 62986 42.9987 201.2335 0001995 244.7076 115.3585 15.70962954 57527
Epoch: Feb 4, 2026 • Age: 9 hours

現在のステータス

高度 356.9 km
速度 7.70 km/s
衛星直下点 26.75°N, 144.56°E
打ち上げ日 Feb 11, 2025
運用期間 0.9 years
タイプ internet

技術仕様

分類 Payload
質量 960.00 kg
乾燥質量 910.00 kg
総質量 960.00 kg
長さ 0.30 m
直径 4.10 m
スパン 29.00 m
形状 Box + pan
製造者 SPXS
バスタイプ Starlink V2MD
フェーズステータス In Orbit
所有者/国 SPXS/US

大規模コンステレーション

Loading constellations...